| time (UTC) | temp F | wind direction | speed MPH | gust MPH | rain 1hr in | rain 24hr in | rain mn in | humidity % | barometer mb |
| 20260903213041 | 76 | 90 | 1.0 | 4.0 | 0.00 | 0.14 | 0.00 | 68 | 1013.0 |
| 20260903211523 | 76 | 30 | 2.0 | 5.0 | 0.00 | 0.14 | 0.00 | 66 | 1013.2 |
| 20260903210018 | 77 | 52 | 2.0 | 9.0 | 0.00 | 0.14 | 0.00 | 62 | 1013.3 |
| 20260903204519 | 77 | 302 | 3.0 | 9.0 | 0.00 | 0.14 | 0.00 | 64 | 1013.5 |
| 20260903203027 | 77 | 338 | 4.0 | 11.0 | 0.00 | 0.14 | 0.00 | 60 | 1013.5 |
| 20260903201535 | 78 | 322 | 2.0 | 10.0 | 0.00 | 0.14 | 0.00 | 63 | 1013.5 |
| 20260903200013 | 79 | 303 | 5.0 | 10.0 | 0.00 | 0.14 | 0.00 | 61 | 1013.5 |
| 20260903194523 | 79 | 308 | 3.0 | 9.0 | 0.00 | 0.14 | 0.00 | 61 | 1013.5 |
| 20260903193025 | 78 | 5 | 4.0 | 9.0 | 0.00 | 0.14 | 0.00 | 63 | 1013.7 |
| 20260903191528 | 78 | 292 | 1.0 | 7.0 | 0.00 | 0.14 | 0.00 | 62 | 1013.7 |
| 20260903190030 | 78 | 306 | 4.0 | 9.0 | 0.00 | 0.14 | 0.00 | 62 | 1013.9 |
| 20260903184515 | 78 | 307 | 4.0 | 10.0 | 0.00 | 0.14 | 0.00 | 62 | 1014.0 |
| 20260903183019 | 78 | 305 | 5.0 | 14.0 | 0.00 | 0.14 | 0.00 | 63 | 1014.0 |
| 20260903181532 | 78 | 360 | 5.0 | 11.0 | 0.00 | 0.14 | 0.00 | 62 | 1014.0 |
| 20260903180040 | 77 | 17 | 2.0 | 11.0 | 0.00 | 0.14 | 0.00 | 69 | 1013.9 |
| 20260903174533 | 78 | 335 | 2.0 | 8.0 | 0.00 | 0.14 | 0.00 | 64 | 1013.9 |
| 20260903173015 | 77 | 347 | 5.0 | 10.0 | 0.00 | 0.14 | 0.00 | 67 | 1014.0 |
| 20260903171524 | 77 | 302 | 3.0 | 10.0 | 0.00 | 0.14 | 0.00 | 68 | 1014.0 |
| 20260903170027 | 76 | 331 | 2.0 | 10.0 | 0.00 | 0.14 | 0.00 | 69 | 1014.0 |
| 20260903164529 | 76 | 20 | 2.0 | 8.0 | 0.00 | 0.14 | 0.00 | 66 | 1014.2 |
| 20260903163034 | 76 | 311 | 3.0 | 9.0 | 0.00 | 0.14 | 0.00 | 71 | 1014.2 |
| 20260903161519 | 75 | 306 | 2.0 | 9.0 | 0.00 | 0.14 | 0.00 | 75 | 1014.2 |
| 20260903160025 | 75 | 20 | 3.0 | 10.0 | 0.00 | 0.14 | 0.00 | 77 | 1014.4 |
| 20260903154539 | 74 | 266 | 2.0 | 8.0 | 0.00 | 0.14 | 0.00 | 81 | 1014.6 |
| 20260903153030 | 74 | 312 | 4.0 | 11.0 | 0.00 | 0.15 | 0.00 | 81 | 1014.7 |
| 20260903151518 | 73 | 343 | 3.0 | 10.0 | 0.00 | 0.19 | 0.00 | 85 | 1014.7 |
| 20260903150025 | 72 | 290 | 4.0 | 9.0 | 0.00 | 0.22 | 0.00 | 84 | 1014.7 |
| 20260903144530 | 71 | 308 | 4.0 | 10.0 | 0.00 | 0.26 | 0.00 | 86 | 1014.6 |
| 20260903143044 | 70 | 342 | 2.0 | 11.0 | 0.00 | 0.30 | 0.00 | 92 | 1014.6 |
| 20260903141517 | 69 | 240 | 1.0 | 10.0 | 0.00 | 0.33 | 0.00 | 96 | 1014.6 |
| 20260903140016 | 68 | 314 | 2.0 | 8.0 | 0.00 | 0.36 | 0.00 | 96 | 1014.6 |
| 20260903134503 | 68 | 313 | 2.0 | 6.0 | 0.00 | 0.36 | 0.00 | 98 | 1014.5 |
| 20260903133007 | 67 | 315 | 1.0 | 7.0 | 0.00 | 0.37 | 0.00 | 98 | 1014.5 |
| 20260903131513 | 66 | 265 | 1.0 | 4.0 | 0.00 | 0.40 | 0.00 | 98 | 1014.6 |
| 20260903130017 | 66 | 223 | 2.0 | 5.0 | 0.00 | 0.40 | 0.00 | 98 | 1014.6 |
| 20260903124517 | 66 | 287 | 0.0 | 2.0 | 0.00 | 0.40 | 0.00 | 98 | 1014.5 |
| 20260903123006 | 65 | 263 | 1.0 | 6.0 | 0.00 | 0.40 | 0.00 | 98 | 1014.4 |
| 20260903121508 | 65 | 264 | 1.0 | 4.0 | 0.00 | 0.40 | 0.00 | 99 | 1014.5 |
| 20260903120015 | 65 | 281 | 1.0 | 4.0 | 0.00 | 0.40 | 0.00 | 98 | 1014.5 |
| 20260903114520 | 65 | 267 | 1.0 | 3.0 | 0.00 | 0.40 | 0.00 | 99 | 1014.4 |
| 20260903113022 | 64 | 267 | 0.0 | 1.0 | 0.00 | 0.40 | 0.00 | 98 | 1014.1 |
| 20260903111508 | 64 | 267 | 0.0 | 3.0 | 0.00 | 0.40 | 0.00 | 98 | 1014.0 |
| 20260903110011 | 64 | 225 | 0.0 | 2.0 | 0.00 | 0.40 | 0.00 | 99 | 1013.8 |
| 20260903104520 | 64 | 180 | 0.0 | 1.0 | 0.00 | 0.40 | 0.00 | 98 | 1013.6 |
| 20260903103020 | 64 | 180 | 0.0 | 1.0 | 0.00 | 0.40 | 0.00 | 98 | 1013.7 |
| 20260903101527 | 64 | 180 | 0.0 | 1.0 | 0.00 | 0.40 | 0.00 | 98 | 1013.7 |
| 20260903100008 | 64 | 180 | 0.0 | 1.0 | 0.00 | 0.40 | 0.00 | 98 | 1013.7 |
| 20260903094514 | 64 | 180 | 0.0 | 2.0 | 0.00 | 0.40 | 0.00 | 98 | 1013.7 |
| 20260903093036 | 64 | 236 | 0.0 | 1.0 | 0.00 | 0.40 | 0.00 | 98 | 1013.8 |
| 20260903091532 | 64 | 236 | 0.0 | 3.0 | 0.00 | 0.40 | 0.00 | 98 | 1013.8 |
| 20260903090028 | 64 | 152 | 0.0 | 1.0 | 0.00 | 0.40 | 0.00 | 98 | 1013.7 |
| 20260903084533 | 64 | 152 | 1.0 | 3.0 | 0.00 | 0.40 | 0.00 | 98 | 1013.7 |
| 20260903083021 | 64 | 152 | 0.0 | 2.0 | 0.00 | 0.40 | 0.00 | 98 | 1013.5 |
| 20260903081528 | 64 | 152 | 0.0 | 2.0 | 0.00 | 0.40 | 0.00 | 98 | 1013.6 |
| 20260903080024 | 64 | 152 | 1.0 | 5.0 | 0.00 | 0.40 | 0.00 | 98 | 1013.6 |
| 20260903074509 | 64 | 221 | 0.0 | 2.0 | 0.00 | 0.40 | 0.00 | 98 | 1013.6 |
| 20260903073018 | 64 | 221 | 0.0 | 2.0 | 0.00 | 0.40 | 0.00 | 98 | 1014.0 |
| 20260903071524 | 64 | 221 | 0.0 | 2.0 | 0.00 | 0.40 | 0.00 | 98 | 1014.1 |
| 20260903070027 | 64 | 221 | 0.0 | 3.0 | 0.00 | 0.40 | 0.00 | 98 | 1014.2 |
| 20260903064526 | 64 | 221 | 1.0 | 2.0 | 0.00 | 0.40 | 0.00 | 98 | 1013.9 |
| 20260903063013 | 64 | 221 | 0.0 | 2.0 | 0.00 | 0.40 | 0.00 | 98 | 1013.9 |
| 20260903061528 | 64 | 221 | 0.0 | 1.0 | 0.00 | 0.40 | 0.00 | 98 | 1013.9 |
| 20260903060027 | 64 | 221 | 0.0 | 2.0 | 0.00 | 0.40 | 0.00 | 98 | 1013.9 |
| 20260903054527 | 64 | 221 | 0.0 | 1.0 | 0.00 | 0.40 | 0.00 | 98 | 1013.8 |
| 20260903053036 | 65 | 212 | 1.0 | 4.0 | 0.00 | 0.40 | 0.00 | 98 | 1013.7 |
| 20260903051518 | 65 | 182 | 2.0 | 5.0 | 0.00 | 0.40 | 0.00 | 98 | 1013.7 |
| 20260903050038 | 65 | 172 | 2.0 | 5.0 | 0.00 | 0.40 | 0.00 | 97 | 1013.6 |
| 20260903044529 | 65 | 167 | 3.0 | 5.0 | 0.00 | 0.40 | 0.00 | 97 | 1013.4 |
| 20260903043008 | 65 | 170 | 1.0 | 5.0 | 0.00 | 0.40 | 0.00 | 97 | 1013.6 |
| 20260903041518 | 66 | 169 | 2.0 | 6.0 | 0.00 | 0.40 | 0.00 | 97 | 1013.9 |
| 20260903040020 | 66 | 242 | 0.0 | 3.0 | 0.00 | 0.40 | 0.00 | 97 | 1014.2 |
| 20260903034533 | 66 | 257 | 2.0 | 7.0 | 0.00 | 0.40 | 0.40 | 97 | 1014.4 |
| 20260903033032 | 67 | 227 | 3.0 | 7.0 | 0.00 | 0.40 | 0.40 | 97 | 1014.0 |
| 20260903031512 | 67 | 208 | 0.0 | 4.0 | 0.00 | 0.40 | 0.40 | 97 | 1013.8 |
| 20260903030016 | 68 | 174 | 1.0 | 4.0 | 0.00 | 0.40 | 0.40 | 97 | 1013.3 |
| 20260903024523 | 68 | 169 | 2.0 | 5.0 | 0.01 | 0.40 | 0.40 | 97 | 1013.2 |
| 20260903023030 | 68 | 141 | 6.0 | 10.0 | 0.03 | 0.40 | 0.40 | 97 | 1012.4 |
| 20260903021532 | 68 | 171 | 7.0 | 12.0 | 0.05 | 0.40 | 0.40 | 97 | 1013.0 |
| 20260903020045 | 68 | 161 | 4.0 | 9.0 | 0.06 | 0.40 | 0.40 | 97 | 1014.0 |
| 20260903014517 | 68 | 196 | 2.0 | 10.0 | 0.07 | 0.39 | 0.39 | 97 | 1014.1 |
| 20260903013028 | 69 | 158 | 6.0 | 10.0 | 0.08 | 0.37 | 0.37 | 97 | 1014.1 |
| 20260903011530 | 69 | 186 | 4.0 | 9.0 | 0.08 | 0.35 | 0.35 | 96 | 1013.9 |
| 20260903010032 | 69 | 190 | 5.0 | 14.0 | 0.08 | 0.34 | 0.34 | 96 | 1013.3 |
| 20260903004516 | 69 | 157 | 4.0 | 9.0 | 0.06 | 0.32 | 0.32 | 95 | 1013.7 |
| 20260903003028 | 70 | 201 | 3.0 | 8.0 | 0.03 | 0.29 | 0.29 | 94 | 1014.5 |
| 20260903001533 | 71 | 159 | 2.0 | 11.0 | 0.01 | 0.27 | 0.27 | 92 | 1014.5 |
| 20260903000040 | 71 | 170 | 5.0 | 10.0 | 0.00 | 0.26 | 0.26 | 90 | 1013.9 |
| 20260902234512 | 72 | 171 | 3.0 | 9.0 | 0.00 | 0.26 | 0.26 | 89 | 1014.1 |
| 20260902233020 | 72 | 153 | 2.0 | 7.0 | 0.00 | 0.26 | 0.26 | 89 | 1013.9 |
| 20260902231534 | 72 | 170 | 4.0 | 7.0 | 0.00 | 0.26 | 0.26 | 88 | 1013.9 |
| 20260902230029 | 73 | 139 | 3.0 | 10.0 | 0.00 | 0.26 | 0.26 | 87 | 1013.7 |
| 20260902224531 | 73 | 142 | 5.0 | 12.0 | 0.00 | 0.26 | 0.26 | 87 | 1013.1 |
| 20260902223019 | 74 | 167 | 5.0 | 12.0 | 0.00 | 0.26 | 0.26 | 85 | 1013.4 |
| 20260902221539 | 75 | 179 | 5.0 | 10.0 | 0.00 | 0.26 | 0.26 | 84 | 1013.4 |
| 20260902220027 | 75 | 162 | 7.0 | 20.0 | 0.00 | 0.26 | 0.26 | 84 | 1012.6 |
| 20260902214533 | 76 | 165 | 6.0 | 16.0 | 0.00 | 0.26 | 0.26 | 83 | 1013.5 |